QPF
0.04 0.04 0.03 0.03 0.02 0.01 0.01 0.01 0.02 0.02 0.02 0.01 0.01 0.01 0.01 0.01 0.02 0.01 0.01 0.02 0.02 0.03 0.03 0.04 0.05 0.08 0.12 0.11 0.10 0.09 0.08 0.08 0.08 0.09 0.09 0.07 0.06 0.05
0.05 0.04 0.03 0.03 0.02 0.02 0.02 0.01 0.02 0.02 0.02 0.02 0.01 0.02 0.01 0.01 0.01 0.01 0.01 0.02 0.02 0.03 0.03 0.03 0.04 0.06 0.10 0.11 0.10 0.10 0.09 0.08 0.07 0.08 0.10 0.10 0.08 0.06
0.06 0.05 0.03 0.02 0.02 0.02 0.02 0.02 0.02 0.02 0.02 0.01 0.01 0.01 0.01 0.01 0.00 0.01 0.01 0.01 0.02 0.03 0.03 0.03 0.03 0.04 0.07 0.10 0.10 0.10 0.09 0.08 0.06 0.07 0.08 0.10 0.10 0.08
0.07 0.06 0.05 0.03 0.02 0.02 0.01 0.01 0.01 0.01 0.02 0.01 0.01 0.01 0.00 0.00 0.01 0.01 0.01 0.01 0.02 0.03 0.04 0.04 0.04 0.05 0.07 0.09 0.10 0.09 0.08 0.08 0.07 0.06 0.05 0.07 0.07 0.08
0.07 0.07 0.06 0.05 0.04 0.03 0.02 0.01 0.01 0.01 0.01 0.02 0.02 0.01 0.01 0.01 0.01 0.02 0.02 0.03 0.03 0.05 0.06 0.05 0.05 0.06 0.07 0.09 0.10 0.09 0.08 0.07 0.06 0.05 0.04 0.05 0.06 0.06
0.04 0.05 0.06 0.06 0.05 0.05 0.04 0.03 0.02 0.02 0.02 0.03 0.03 0.02 0.02 0.01 0.02 0.02 0.03 0.04 0.05 0.06 0.07 0.06 0.05 0.05 0.05 0.07 0.08 0.10 0.08 0.06 0.06 0.06 0.05 0.04 0.05 0.06
0.04 0.04 0.04 0.05 0.06 0.06 0.06 0.06 0.05 0.05 0.05 0.04 0.04 0.03 0.03 0.03 0.03 0.03 0.03 0.04 0.05 0.05 0.05 0.04 0.04 0.04 0.04 0.04 0.07 0.08 0.09 0.09 0.07 0.06 0.05 0.05 0.04 0.06
0.04 0.04 0.04 0.04 0.04 0.05 0.06 0.06 0.06 0.06 0.06 0.05 0.04 0.04 0.03 0.03 0.03 0.03 0.04 0.04 0.04 0.04 0.04 0.04 0.03 0.05 0.06 0.05 0.06 0.08 0.08 0.09 0.09 0.08 0.06 0.05 0.04 0.06
0.04 0.04 0.05 0.04 0.04 0.03 0.03 0.03 0.04 0.04 0.04 0.04 0.04 0.03 0.02 0.02 0.03 0.03 0.03 0.04 0.05 0.04 0.05 0.05 0.04 0.04 0.04 0.06 0.07 0.07 0.08 0.08 0.08 0.07 0.07 0.06 0.05 0.05
0.03 0.03 0.04 0.04 0.04 0.04 0.04 0.03 0.02 0.02 0.02 0.02 0.02 0.02 0.02 0.02 0.02 0.04 0.04 0.04 0.04 0.04 0.06 0.07 0.06 0.04 0.04 0.04 0.06 0.08 0.09 0.09 0.08 0.07 0.06 0.05 0.05 0.06
0.02 0.02 0.02 0.02 0.02 0.04 0.05 0.04 0.04 0.03 0.02 0.02 0.02 0.02 0.02 0.02 0.03 0.04 0.04 0.04 0.04 0.04 0.04 0.06 0.06 0.05 0.04 0.04 0.05 0.05 0.07 0.09 0.09 0.09 0.09 0.08 0.08 0.08
0.01 0.01 0.02 0.02 0.03 0.03 0.02 0.03 0.03 0.03 0.03 0.03 0.03 0.03 0.03 0.03 0.03 0.03 0.04 0.04 0.04 0.04 0.04 0.04 0.05 0.05 0.06 0.05 0.04 0.04 0.05 0.06 0.08 0.09 0.09 0.08 0.08 0.08
0.02 0.02 0.02 0.02 0.03 0.02 0.02 0.01 0.02 0.02 0.02 0.03 0.03 0.04 0.04 0.04 0.04 0.03 0.04 0.05 0.05 0.05 0.04 0.04 0.05 0.04 0.05 0.05 0.05 0.04 0.04 0.04 0.06 0.07 0.08 0.08 0.08 0.08
0.02 0.01 0.01 0.02 0.03 0.02 0.02 0.02 0.02 0.02 0.03 0.03 0.03 0.03 0.03 0.03 0.03 0.03 0.03 0.04 0.04 0.05 0.04 0.05 0.06 0.05 0.05 0.05 0.05 0.05 0.04 0.04 0.04 0.04 0.05 0.06 0.07 0.07
0.01 0.02 0.02 0.02 0.02 0.02 0.02 0.02 0.02 0.02 0.03 0.03 0.03 0.02 0.02 0.02 0.03 0.03 0.03 0.03 0.03 0.04 0.04 0.04 0.05 0.05 0.05 0.05 0.05 0.05 0.06 0.05 0.04 0.04 0.04 0.04 0.05 0.06
0.01 0.02 0.02 0.02 0.02 0.02 0.02 0.02 0.02 0.02 0.02 0.03 0.03 0.02 0.02 0.02 0.03 0.03 0.03 0.04 0.04 0.04 0.04 0.04 0.04 0.05 0.05 0.04 0.04 0.05 0.04 0.04 0.03 0.03 0.03 0.04 0.04 0.05
0.02 0.02 0.02 0.02 0.01 0.01 0.01 0.01 0.01 0.02 0.02 0.02 0.02 0.02 0.02 0.03 0.03 0.03 0.03 0.03 0.03 0.03 0.03 0.04 0.04 0.04 0.04 0.04 0.04 0.04 0.03 0.03 0.03 0.03 0.04 0.04 0.05 0.05
0.03 0.03 0.02 0.02 0.02 0.02 0.01 0.01 0.01 0.02 0.02 0.02 0.02 0.02 0.02 0.03 0.04 0.04 0.04 0.04 0.03 0.03 0.03 0.03 0.04 0.05 0.04 0.05 0.04 0.03 0.03 0.02 0.02 0.03 0.03 0.04 0.05 0.05
0.03 0.03 0.02 0.02 0.02 0.02 0.02 0.02 0.02 0.02 0.02 0.03 0.03 0.03 0.03 0.03 0.03 0.04 0.04 0.04 0.04 0.03 0.03 0.03 0.04 0.04 0.05 0.05 0.04 0.03 0.03 0.03 0.03 0.03 0.03 0.03 0.04 0.05
0.02 0.02 0.02 0.02 0.03 0.03 0.03 0.02 0.02 0.02 0.03 0.03 0.03 0.03 0.03 0.03 0.04 0.03 0.03 0.03 0.04 0.03 0.03 0.03 0.03 0.04 0.05 0.05 0.04 0.03 0.03 0.03 0.03 0.03 0.03 0.03 0.04 0.05
0.03 0.03 0.03 0.03 0.03 0.03 0.03 0.03 0.03 0.02 0.02 0.03 0.03 0.03 0.03 0.04 0.04 0.03 0.03 0.03 0.04 0.04 0.03 0.03 0.03 0.03 0.04 0.04 0.04 0.04 0.03 0.03 0.03 0.03 0.03 0.03 0.04 0.05
0.03 0.03 0.03 0.03 0.03 0.03 0.03 0.03 0.02 0.02 0.03 0.03 0.03 0.03 0.03 0.03 0.04 0.03 0.03 0.04 0.04 0.03 0.03 0.03 0.02 0.02 0.03 0.03 0.03 0.03 0.03 0.03 0.03 0.03 0.04 0.04 0.04 0.05
0.03 0.03 0.03 0.03 0.03 0.03 0.03 0.03 0.03 0.03 0.03 0.03 0.03 0.03 0.03 0.04 0.04 0.04 0.04 0.04 0.04 0.03 0.03 0.03 0.03 0.03 0.03 0.02 0.03 0.03 0.03 0.03 0.03 0.03 0.04 0.05 0.04 0.04
MSLP
1009.13 1009.44 1009.86 1010.37 1010.93 1011.50 1012.07 1012.62 1013.16 1013.68 1014.20 1014.73 1015.27 1015.82 1016.37 1016.90 1017.41 1017.88 1018.31 1018.72 1019.10 1019.50 1019.91 1020.35 1020.81 1021.30 1021.79 1022.26 1022.69 1023.06 1023.37 1023.61 1023.80 1023.96 1024.09 1024.22 1024.36 1024.52
1007.97 1008.18 1008.52 1008.98 1009.51 1010.09 1010.70 1011.31 1011.92 1012.52 1013.13 1013.75 1014.36 1014.96 1015.56 1016.12 1016.64 1017.12 1017.57 1018.00 1018.41 1018.84 1019.29 1019.78 1020.30 1020.83 1021.37 1021.88 1022.35 1022.76 1023.10 1023.37 1023.58 1023.76 1023.91 1024.06 1024.22 1024.40
1006.99 1007.06 1007.30 1007.67 1008.15 1008.72 1009.35 1010.01 1010.69 1011.39 1012.09 1012.79 1013.48 1014.16 1014.80 1015.39 1015.94 1016.44 1016.91 1017.34 1017.77 1018.22 1018.70 1019.20 1019.75 1020.31 1020.86 1021.40 1021.89 1022.32 1022.68 1022.98 1023.23 1023.43 1023.61 1023.79 1023.97 1024.16
1006.20 1006.12 1006.21 1006.48 1006.89 1007.42 1008.05 1008.75 1009.49 1010.27 1011.06 1011.85 1012.63 1013.37 1014.07 1014.71 1015.30 1015.82 1016.30 1016.75 1017.19 1017.64 1018.11 1018.62 1019.15 1019.70 1020.25 1020.79 1021.28 1021.72 1022.10 1022.43 1022.70 1022.95 1023.18 1023.39 1023.60 1023.82
1005.59 1005.34 1005.29 1005.42 1005.73 1006.21 1006.81 1007.52 1008.30 1009.14 1010.00 1010.88 1011.73 1012.55 1013.31 1014.01 1014.64 1015.20 1015.71 1016.18 1016.62 1017.07 1017.52 1018.00 1018.50 1019.01 1019.53 1020.03 1020.50 1020.93 1021.33 1021.69 1022.01 1022.31 1022.59 1022.86 1023.12 1023.37
1005.13 1004.71 1004.50 1004.49 1004.69 1005.08 1005.63 1006.31 1007.09 1007.96 1008.86 1009.79 1010.71 1011.60 1012.43 1013.20 1013.89 1014.51 1015.06 1015.56 1016.01 1016.45 1016.89 1017.32 1017.77 1018.23 1018.68 1019.13 1019.57 1019.99 1020.40 1020.78 1021.16 1021.52 1021.87 1022.20 1022.52 1022.82
1004.77 1004.19 1003.83 1003.68 1003.75 1004.03 1004.49 1005.10 1005.85 1006.69 1007.60 1008.55 1009.51 1010.45 1011.35 1012.19 1012.96 1013.65 1014.26 1014.81 1015.30 1015.75 1016.16 1016.57 1016.96 1017.36 1017.75 1018.14 1018.54 1018.94 1019.34 1019.76 1020.18 1020.60 1021.03 1021.44 1021.83 1022.19
1004.46 1003.76 1003.27 1002.99 1002.92 1003.07 1003.41 1003.91 1004.56 1005.34 1006.20 1007.12 1008.09 1009.06 1010.01 1010.92 1011.78 1012.56 1013.26 1013.88 1014.42 1014.90 1015.33 1015.71 1016.07 1016.41 1016.75 1017.09 1017.45 1017.82 1018.23 1018.66 1019.13 1019.61 1020.11 1020.60 1021.06 1021.49
1004.20 1003.42 1002.82 1002.43 1002.23 1002.24 1002.43 1002.79 1003.30 1003.95 1004.71 1005.56 1006.48 1007.45 1008.43 1009.40 1010.34 1011.21 1012.01 1012.73 1013.36 1013.90 1014.36 1014.76 1015.11 1015.43 1015.73 1016.03 1016.36 1016.71 1017.11 1017.56 1018.05 1018.58 1019.13 1019.68 1020.22 1020.72
1003.98 1003.17 1002.52 1002.04 1001.73 1001.60 1001.62 1001.81 1002.14 1002.61 1003.22 1003.95 1004.78 1005.70 1006.68 1007.69 1008.69 1009.65 1010.56 1011.39 1012.12 1012.74 1013.28 1013.72 1014.09 1014.42 1014.71 1015.00 1015.31 1015.65 1016.05 1016.50 1017.00 1017.56 1018.14 1018.73 1019.31 1019.85
1003.84 1003.06 1002.40 1001.87 1001.47 1001.20 1001.07 1001.06 1001.18 1001.45 1001.87 1002.43 1003.13 1003.96 1004.90 1005.90 1006.94 1007.97 1008.97 1009.90 1010.74 1011.47 1012.09 1012.61 1013.04 1013.40 1013.72 1014.02 1014.33 1014.68 1015.06 1015.50 1016.00 1016.55 1017.13 1017.72 1018.32 1018.90
1003.82 1003.11 1002.48 1001.94 1001.48 1001.10 1000.80 1000.60 1000.52 1000.57 1000.77 1001.14 1001.68 1002.38 1003.23 1004.20 1005.23 1006.30 1007.36 1008.37 1009.30 1010.13 1010.84 1011.45 1011.95 1012.38 1012.75 1013.09 1013.42 1013.76 1014.15 1014.57 1015.04 1015.56 1016.11 1016.69 1017.27 1017.84
1003.92 1003.31 1002.74 1002.22 1001.72 1001.25 1000.83 1000.46 1000.18 1000.02 1000.01 1000.17 1000.53 1001.09 1001.82 1002.70 1003.69 1004.75 1005.83 1006.88 1007.87 1008.77 1009.57 1010.25 1010.84 1011.34 1011.78 1012.17 1012.53 1012.90 1013.28 1013.68 1014.12 1014.59 1015.09 1015.61 1016.15 1016.70
1004.11 1003.61 1003.13 1002.64 1002.13 1001.61 1001.08 1000.58 1000.13 999.79 999.59 999.56 999.75 1000.14 1000.74 1001.51 1002.41 1003.41 1004.46 1005.50 1006.51 1007.44 1008.29 1009.04 1009.70 1010.27 1010.78 1011.23 1011.64 1012.03 1012.42 1012.80 1013.20 1013.62 1014.05 1014.51 1014.99 1015.48
1004.31 1003.92 1003.52 1003.07 1002.58 1002.03 1001.44 1000.84 1000.27 999.80 999.45 999.27 999.30 999.55 1000.00 1000.64 1001.43 1002.33 1003.30 1004.28 1005.25 1006.18 1007.04 1007.82 1008.52 1009.16 1009.72 1010.24 1010.70 1011.13 1011.53 1011.91 1012.28 1012.65 1013.02 1013.40 1013.81 1014.24
1004.41 1004.11 1003.78 1003.38 1002.91 1002.35 1001.73 1001.09 1000.47 999.91 999.47 999.19 999.11 999.23 999.56 1000.06 1000.72 1001.50 1002.35 1003.23 1004.12 1004.99 1005.81 1006.59 1007.32 1007.99 1008.61 1009.18 1009.70 1010.17 1010.60 1010.99 1011.35 1011.68 1012.00 1012.32 1012.65 1013.02
1004.33 1004.08 1003.79 1003.42 1002.97 1002.43 1001.83 1001.19 1000.56 999.99 999.52 999.20 999.05 999.10 999.32 999.71 1000.24 1000.87 1001.58 1002.33 1003.10 1003.87 1004.63 1005.37 1006.09 1006.77 1007.43 1008.05 1008.63 1009.16 1009.63 1010.05 1010.41 1010.73 1011.02 1011.29 1011.57 1011.87
1003.99 1003.75 1003.47 1003.12 1002.69 1002.18 1001.62 1001.02 1000.44 999.91 999.47 999.17 999.02 999.02 999.18 999.48 999.89 1000.39 1000.95 1001.56 1002.19 1002.84 1003.51 1004.18 1004.86 1005.55 1006.22 1006.88 1007.51 1008.10 1008.63 1009.09 1009.48 1009.81 1010.10 1010.35 1010.59 1010.84
1003.39 1003.14 1002.84 1002.49 1002.08 1001.61 1001.10 1000.57 1000.07 999.63 999.27 999.03 998.92 998.93 999.06 999.29 999.61 999.99 1000.41 1000.88 1001.37 1001.89 1002.45 1003.04 1003.67 1004.34 1005.02 1005.71 1006.39 1007.03 1007.62 1008.13 1008.58 1008.94 1009.24 1009.50 1009.73 1009.96
1002.62 1002.32 1002.00 1001.63 1001.23 1000.80 1000.35 999.91 999.51 999.17 998.92 998.77 998.71 998.76 998.89 999.08 999.32 999.60 999.91 1000.24 1000.61 1001.01 1001.46 1001.97 1002.55 1003.18 1003.86 1004.56 1005.28 1005.97 1006.62 1007.20 1007.69 1008.11 1008.45 1008.73 1008.98 1009.21
1001.79 1001.43 1001.07 1000.68 1000.28 999.88 999.50 999.14 998.84 998.61 998.46 998.40 998.42 998.50 998.64 998.81 999.00 999.20 999.41 999.64 999.89 1000.19 1000.54 1000.98 1001.49 1002.08 1002.75 1003.46 1004.20 1004.93 1005.62 1006.26 1006.82 1007.29 1007.69 1008.01 1008.29 1008.55
1001.03 1000.62 1000.21 999.80 999.40 999.02 998.68 998.39 998.17 998.03 997.96 997.97 998.04 998.16 998.31 998.46 998.61 998.75 998.88 999.02 999.19 999.40 999.68 1000.04 1000.50 1001.05 1001.69 1002.40 1003.14 1003.90 1004.62 1005.30 1005.91 1006.45 1006.90 1007.28 1007.61 1007.91
1000.43 999.97 999.52 999.09 998.68 998.31 997.99 997.74 997.56 997.47 997.46 997.51 997.61 997.74 997.88 998.01 998.12 998.21 998.28 998.35 998.45 998.60 998.82 999.13 999.54 1000.06 1000.67 1001.35 1002.09 1002.84 1003.58 1004.29 1004.93 1005.52 1006.03 1006.47 1006.87 1007.22
Thickness
5496 5497 5498 5499 5498 5498 5498 5497 5496 5502 5510 5510 5507 5508 5507 5508 5509 5510 5512 5513 5515 5517 5518 5519 5521 5522 5523 5524 5524 5526 5527 5527 5527 5527 5528 5529 5530 5531
5486 5487 5488 5489 5488 5488 5487 5487 5486 5488 5493 5499 5496 5495 5494 5495 5496 5498 5500 5501 5504 5505 5507 5508 5510 5511 5512 5513 5513 5513 5514 5515 5516 5517 5518 5519 5519 5520
5476 5477 5478 5479 5478 5478 5477 5477 5476 5475 5478 5485 5483 5483 5483 5484 5485 5486 5488 5490 5492 5494 5496 5498 5499 5500 5501 5502 5502 5502 5502 5503 5504 5505 5507 5508 5508 5509
5466 5467 5467 5468 5468 5467 5467 5466 5466 5466 5466 5469 5471 5471 5471 5472 5473 5475 5477 5479 5481 5483 5485 5487 5488 5488 5489 5490 5490 5490 5491 5491 5492 5493 5495 5497 5498 5498
5455 5456 5457 5456 5457 5457 5456 5456 5456 5457 5456 5456 5459 5459 5459 5460 5461 5463 5465 5467 5469 5471 5473 5475 5476 5477 5477 5478 5478 5478 5479 5480 5481 5482 5483 5484 5486 5487
5445 5445 5446 5446 5446 5446 5447 5447 5446 5445 5445 5445 5446 5447 5447 5448 5448 5450 5453 5455 5457 5459 5461 5462 5464 5465 5466 5466 5467 5468 5468 5468 5469 5470 5471 5473 5474 5475
5434 5435 5435 5437 5437 5436 5437 5436 5435 5434 5434 5434 5435 5436 5436 5435 5436 5438 5440 5442 5445 5447 5448 5450 5452 5453 5454 5455 5455 5456 5457 5457 5458 5459 5460 5461 5463 5464
5423 5424 5424 5425 5426 5426 5426 5426 5424 5423 5423 5423 5424 5424 5425 5424 5424 5425 5426 5429 5433 5435 5435 5438 5439 5441 5443 5444 5445 5445 5446 5445 5446 5447 5448 5450 5451 5452
5413 5413 5414 5415 5416 5415 5415 5415 5413 5412 5412 5412 5412 5413 5413 5413 5413 5414 5415 5416 5420 5422 5421 5426 5427 5429 5432 5432 5433 5434 5434 5435 5436 5437 5437 5439 5440 5441
5403 5403 5404 5405 5405 5405 5405 5404 5403 5402 5402 5401 5402 5403 5402 5402 5402 5404 5405 5406 5408 5409 5409 5411 5414 5416 5419 5421 5422 5423 5424 5425 5426 5427 5428 5428 5429 5430
5394 5394 5394 5395 5397 5396 5396 5395 5394 5393 5392 5391 5392 5392 5393 5393 5392 5392 5393 5395 5398 5399 5397 5397 5401 5402 5405 5408 5410 5411 5413 5414 5415 5416 5417 5418 5419 5420
5386 5386 5386 5386 5387 5387 5386 5385 5385 5384 5382 5382 5382 5382 5382 5382 5382 5381 5382 5382 5384 5386 5386 5385 5386 5386 5390 5396 5398 5399 5401 5402 5403 5405 5407 5408 5409 5409
5377 5377 5377 5378 5378 5378 5377 5376 5376 5375 5373 5371 5372 5372 5372 5371 5371 5371 5371 5371 5371 5374 5375 5374 5374 5374 5376 5381 5386 5388 5389 5390 5392 5393 5395 5397 5398 5399
5368 5368 5369 5369 5369 5369 5368 5368 5367 5366 5363 5362 5362 5362 5361 5361 5361 5361 5362 5362 5363 5364 5366 5365 5366 5366 5367 5369 5373 5377 5378 5380 5381 5382 5384 5386 5387 5389
5358 5360 5360 5360 5359 5358 5358 5357 5356 5354 5353 5352 5352 5352 5351 5351 5351 5352 5353 5354 5355 5356 5357 5358 5359 5359 5360 5361 5363 5365 5367 5369 5370 5371 5373 5374 5376 5378
5349 5350 5350 5350 5349 5348 5347 5346 5344 5343 5342 5341 5341 5341 5341 5341 5342 5343 5343 5344 5346 5348 5349 5349 5351 5352 5352 5353 5354 5356 5357 5358 5361 5361 5363 5365 5367 5370
5341 5341 5340 5339 5338 5337 5336 5335 5333 5332 5332 5332 5332 5332 5333 5333 5334 5334 5334 5335 5336 5338 5340 5340 5342 5343 5345 5346 5347 5349 5349 5350 5351 5353 5355 5358 5361 5363
5332 5331 5330 5330 5328 5327 5326 5325 5324 5323 5323 5323 5324 5324 5325 5325 5325 5326 5326 5327 5328 5330 5331 5332 5332 5334 5336 5338 5340 5342 5342 5343 5345 5346 5348 5350 5354 5356
5322 5321 5320 5320 5319 5318 5317 5316 5315 5315 5315 5315 5316 5316 5317 5317 5317 5318 5319 5320 5321 5322 5323 5324 5325 5327 5330 5333 5334 5335 5336 5338 5339 5341 5342 5344 5347 5350
5313 5312 5312 5311 5310 5310 5309 5308 5308 5308 5308 5308 5308 5309 5309 5309 5310 5311 5312 5313 5314 5315 5316 5317 5318 5321 5323 5325 5326 5328 5330 5332 5334 5336 5337 5338 5340 5344
5305 5304 5303 5303 5303 5302 5302 5301 5301 5301 5301 5301 5301 5301 5302 5303 5304 5305 5306 5307 5308 5309 5310 5311 5313 5315 5316 5317 5319 5323 5325 5328 5329 5330 5332 5334 5336 5339
5296 5296 5296 5296 5296 5296 5296 5296 5296 5296 5295 5295 5295 5295 5295 5296 5297 5298 5300 5301 5302 5303 5304 5305 5307 5309 5310 5312 5315 5317 5320 5322 5324 5326 5328 5331 5332 5335
5288 5288 5288 5289 5289 5289 5290 5290 5290 5290 5290 5289 5289 5289 5289 5290 5291 5292 5294 5295 5296 5297 5298 5299 5301 5303 5305 5307 5308 5311 5313 5316 5318 5321 5324 5327 5329 5331